Voltar ao catálogo

FLOCK 4G 35

AtivoCiênciaSSO
NORAD 62683·PAYLOAD·🇺🇸 United States

Lançado Jan 14, 2025 de Vandenberg Space Force Base

Loading…

Próximas Passagens (próximas 24 horas)

TLE

AtualizadoSource: Space-Track

Época: Sep 14, 2026, 05:08 UTC

1 62683U 25009CC  26257.21424124  .00030409  00000-0  64387-3 0  9990
2 62683  97.3918 342.0825 0002844   8.4885 351.6411 15.45059484150393

Acompanhe FLOCK 4G 35 em tempo real com AllMySat

Download on the App Store